Simultaneous Nadir Overpasses (SNOs) Predictions

Prediction of SNOs between NPP and TERRA Satellite Orbit:

Table of predicted SNOs for the next 14.0 days since TLE Epoch: 8/28/2021
Index Date (NPP) Time (NPP) Lat,Lon (NPP) SZA (NPP ) Date (TERRA) Time (TERRA) Lat,Lon (TERRA) SZA (TERRA ) Distance(km) Time Diff (sec)
1 08/28/2021 07:17:18 -69.71,-112.46 119.96 08/28/2021 07:18:25 -69.59,-110.38 120.12 81.77 67
2 08/28/2021 08:07:47 68.78, 56.15 59.10 08/28/2021 08:08:05 68.76, 56.20 59.08 2.92 18
3 08/28/2021 08:58:28 -68.65,-136.36 121.02 08/28/2021 08:57:35 -68.65,-136.31 121.03 1.76 53
4 08/30/2021 23:33:58 -68.83, 4.55 119.91 08/30/2021 23:35:04 -68.85, 4.55 119.89 2.81 66
5 08/31/2021 00:24:42 68.70, 172.02 59.97 08/31/2021 00:24:32 68.69, 171.98 59.96 2.34 10
6 08/31/2021 01:15:18 -68.30, -20.13 120.43 08/31/2021 01:14:06 -68.35, -20.79 120.36 27.81 72
7 09/02/2021 15:50:54 -68.80, 120.35 118.97 09/02/2021 15:51:31 -68.78, 120.33 119.00 2.88 37
8 09/02/2021 16:41:38 68.68, -72.18 60.92 09/02/2021 16:40:58 68.66, -72.17 60.90 2.10 40
9 09/05/2021 07:17:12 69.13, 68.34 62.35 09/05/2021 07:18:23 69.01, 68.88 62.22 25.22 71
10 09/05/2021 08:07:48 -68.72,-123.77 118.07 09/05/2021 08:07:56 -68.74,-123.82 118.04 3.23 8
11 09/05/2021 08:58:32 68.60, 43.69 61.83 09/05/2021 08:57:23 68.62, 43.67 61.85 2.53 69
12 09/07/2021 23:34:03 68.85,-175.49 63.05 09/07/2021 23:34:51 68.86,-175.43 63.06 3.12 48
13 09/08/2021 00:24:44 -68.70, -7.98 117.09 09/08/2021 00:24:22 -68.71, -7.99 117.08 0.96 22
14 09/08/2021 01:15:11 67.67, 160.65 61.89 09/08/2021 01:14:04 67.74, 158.52 61.98 90.41 67
15 09/10/2021 15:00:30 -69.74, 131.71 115.05 09/10/2021 15:01:37 -69.66, 133.85 115.15 83.12 67
16 09/10/2021 15:50:58 68.78, -59.63 63.99 09/10/2021 15:51:18 68.76, -59.67 63.97 2.97 20
17 09/10/2021 16:41:40 -68.68, 107.82 116.10 09/10/2021 16:40:48 -68.66, 107.84 116.12 2.22 52



Historial Predications of SNOs between NPP and TERRA
